Weather in Menil

Russia / Udmurt Republic     57°38′00″N   53°05′46″E
temp.,
°C
wind,
m/s
gust,
m/s
humid.,
%
clouds,
%
prec.,
mm/h
press.,
hPa
HPBL,
m
19 april, mon
mon1901:00−2ene411735 0.0 1033382
04:00−3ene310730 0.0 1034373
07:00−1e410500 0.0 1035705
10:00+2e68310 0.0 10351413
13:00+5e57290 0.0 10341617
16:00+5e45310 0.0 10341663
19:00+2e35510 0.0 1034104
22:00−1e35640 0.0 103584
20 april, tue
tue2001:00−2e23660 0.0 103665
04:00−2e22610 0.0 103629
07:000e22495 0.0 1037163
10:00+5ese22335 0.0 1036963
13:00+7e11292 0.0 10341261
16:00+8ne11295 0.0 10331295
19:00+5ene12450 0.0 103213
22:00+2se11540 0.0 103310
21 april, wed
wed2101:00+1se22580 0.0 103212
04:000se22590 0.0 103222
07:00+3se36513 0.0 1032180
10:00+8sse573580 0.0 1031936
13:00+10sse683289 0.0 10291198
16:00+11sse6103572 0.0 10271279
19:00+8sse51143100 0.0 1027603
22:00+6sse51351100 0.0 1027497
22 april, thu
thu2201:00+5sse41256100 0.0 1027470
04:00+5s41157100 0.0 1027575
07:00+5s51264100 0.0 1027916
10:00+4s51287100 0.1 1028786
13:00+4s51196100 0.3 1029776
16:00+4s51196100 0.6 1029784
19:00+4s51297100 0.1 1029784
22:00+5s41085100 0.2 1029704
23 april, fri
fri2301:00+4s3893100 0.0 1029482
04:00+4sse3695100 0.0 1030293
07:00+4sse3695100 0.0 1030297
10:00+5sse3588100 0.0 1030539
13:00+4sse3595100 0.1 1030697
16:00+4sse3894100 1.4 1030772
19:00+4e2498100 0.9 1029145
22:00+4e2698100 0.9 1027173